Year,Month,Day,Hour,Minute,Value (Times are PST for temperature in C)
2006,06,23,00,00,11.40
2006,06,23,00,01,11.40
2006,06,23,00,02,11.30
2006,06,23,00,03,11.30
2006,06,23,00,04,11.30
2006,06,23,00,05,11.30
2006,06,23,00,06,11.30
2006,06,23,00,07,11.30
2006,06,23,00,08,11.30
2006,06,23,00,09,11.30
2006,06,23,00,10,11.30
2006,06,23,00,11,11.30
2006,06,23,00,12,11.30
2006,06,23,00,13,11.20
2006,06,23,00,14,11.20
2006,06,23,00,15,11.20
2006,06,23,00,16,11.20
2006,06,23,00,17,11.20
2006,06,23,00,18,11.20
2006,06,23,00,19,11.20
2006,06,23,00,20,11.20
2006,06,23,00,21,11.20
2006,06,23,00,22,11.20
2006,06,23,00,23,11.10
2006,06,23,00,24,11.10
2006,06,23,00,25,11.10
2006,06,23,00,26,11.10
2006,06,23,00,27,11.10
2006,06,23,00,28,11.10
2006,06,23,00,29,11.10
2006,06,23,00,30,11.10
2006,06,23,00,31,11.10
2006,06,23,00,32,11.10
2006,06,23,00,33,11.10
2006,06,23,00,34,11.10
2006,06,23,00,35,11.10
2006,06,23,00,36,11.00
2006,06,23,00,37,11.00
2006,06,23,00,38,11.00
2006,06,23,00,39,11.00
2006,06,23,00,40,11.00
2006,06,23,00,41,11.00
2006,06,23,00,42,11.00
2006,06,23,00,43,11.00
2006,06,23,00,44,11.00
2006,06,23,00,45,11.00
2006,06,23,00,46,11.00
2006,06,23,00,47,11.00
2006,06,23,00,48,11.00
2006,06,23,00,49,11.00
2006,06,23,00,50,10.90
2006,06,23,00,51,10.90
2006,06,23,00,52,10.90
2006,06,23,00,53,10.90
2006,06,23,00,54,10.90
2006,06,23,00,55,10.90
2006,06,23,00,56,10.90
2006,06,23,00,57,10.90
2006,06,23,00,58,10.90
2006,06,23,00,59,10.90
2006,06,23,01,00,10.80
2006,06,23,01,01,10.80
2006,06,23,01,02,10.80
2006,06,23,01,03,10.80
2006,06,23,01,04,10.80
2006,06,23,01,05,10.80
2006,06,23,01,06,10.80
2006,06,23,01,07,10.80
2006,06,23,01,08,10.80
2006,06,23,01,09,10.80
2006,06,23,01,10,10.80
2006,06,23,01,11,10.80
2006,06,23,01,12,10.80
2006,06,23,01,13,10.80
2006,06,23,01,14,10.80
2006,06,23,01,15,10.80
2006,06,23,01,16,10.80
2006,06,23,01,17,10.80
2006,06,23,01,18,10.80
2006,06,23,01,19,10.70
2006,06,23,01,20,10.70
2006,06,23,01,21,10.70
2006,06,23,01,22,10.70
2006,06,23,01,23,10.70
2006,06,23,01,24,10.70
2006,06,23,01,25,10.70
2006,06,23,01,26,10.70
2006,06,23,01,27,10.70
2006,06,23,01,28,10.70
2006,06,23,01,29,10.60
2006,06,23,01,30,10.60
2006,06,23,01,31,10.60
2006,06,23,01,32,10.60
2006,06,23,01,33,10.60
2006,06,23,01,34,10.60
2006,06,23,01,35,10.60
2006,06,23,01,36,10.70
2006,06,23,01,37,10.70
2006,06,23,01,38,10.70
2006,06,23,01,39,10.70
2006,06,23,01,40,10.70
2006,06,23,01,41,10.70
2006,06,23,01,42,10.70
2006,06,23,01,43,10.60
2006,06,23,01,44,10.60
2006,06,23,01,45,10.60
2006,06,23,01,46,10.60
2006,06,23,01,47,10.60
2006,06,23,01,48,10.60
2006,06,23,01,49,10.60
2006,06,23,01,50,10.60
2006,06,23,01,51,10.50
2006,06,23,01,52,10.50
2006,06,23,01,53,10.50
2006,06,23,01,54,10.50
2006,06,23,01,55,10.40
2006,06,23,01,56,10.40
2006,06,23,01,57,10.40
2006,06,23,01,58,10.40
2006,06,23,01,59,10.40
2006,06,23,02,00,10.40
2006,06,23,02,01,10.40
2006,06,23,02,02,10.40
2006,06,23,02,03,10.40
2006,06,23,02,04,10.40
2006,06,23,02,05,10.40
2006,06,23,02,06,10.30
2006,06,23,02,07,10.30
2006,06,23,02,08,10.30
2006,06,23,02,09,10.30
2006,06,23,02,10,10.30
2006,06,23,02,11,10.30
2006,06,23,02,12,10.30
2006,06,23,02,13,10.30
2006,06,23,02,14,10.30
2006,06,23,02,15,10.30
2006,06,23,02,16,10.30
2006,06,23,02,17,10.30
2006,06,23,02,18,10.30
2006,06,23,02,19,10.20
2006,06,23,02,20,10.30
2006,06,23,02,21,10.30
2006,06,23,02,22,10.20
2006,06,23,02,23,10.20
2006,06,23,02,24,10.20
2006,06,23,02,25,10.20
2006,06,23,02,26,10.20
2006,06,23,02,27,10.20
2006,06,23,02,28,10.20
2006,06,23,02,29,10.20
2006,06,23,02,30,10.20
2006,06,23,02,31,10.20
2006,06,23,02,32,10.20
2006,06,23,02,33,10.20
2006,06,23,02,34,10.20
2006,06,23,02,35,10.20
2006,06,23,02,36,10.20
2006,06,23,02,37,10.20
2006,06,23,02,38,10.10
2006,06,23,02,39,10.10
2006,06,23,02,40,10.10
2006,06,23,02,41,10.10
2006,06,23,02,42,10.10
2006,06,23,02,43,10.10
2006,06,23,02,44,10.10
2006,06,23,02,45,10.10
2006,06,23,02,46,10.10
2006,06,23,02,47,10.10
2006,06,23,02,48,10.10
2006,06,23,02,49,10.10
2006,06,23,02,50,10.10
2006,06,23,02,51,10.10
2006,06,23,02,52,10.10
2006,06,23,02,53,10.10
2006,06,23,02,54,10.10
2006,06,23,02,55,10.10
2006,06,23,02,56,10.10
2006,06,23,02,57,10.10
2006,06,23,02,58,10.10
2006,06,23,02,59,10.10
2006,06,23,03,00,10.00
2006,06,23,03,01,10.00
2006,06,23,03,02,10.00
2006,06,23,03,03,10.00
2006,06,23,03,04,10.00
2006,06,23,03,05,10.00
2006,06,23,03,06,10.00
2006,06,23,03,07,10.10
2006,06,23,03,08,10.00
2006,06,23,03,09,10.00
2006,06,23,03,10,10.10
2006,06,23,03,11,10.00
2006,06,23,03,12,10.00
2006,06,23,03,13,10.00
2006,06,23,03,14,10.10
2006,06,23,03,15,10.10
2006,06,23,03,16,10.10
2006,06,23,03,17,10.10
2006,06,23,03,18,10.10
2006,06,23,03,19,10.10
2006,06,23,03,20,10.10
2006,06,23,03,21,10.10
2006,06,23,03,22,10.10
2006,06,23,03,23,10.10
2006,06,23,03,24,10.10
2006,06,23,03,25,10.10
2006,06,23,03,26,10.10
2006,06,23,03,27,10.10
2006,06,23,03,28,10.10
2006,06,23,03,29,10.10
2006,06,23,03,30,10.10
2006,06,23,03,31,10.20
2006,06,23,03,32,10.20
2006,06,23,03,33,10.20
2006,06,23,03,34,10.20
2006,06,23,03,35,10.20
2006,06,23,03,36,10.20
2006,06,23,03,37,10.20
2006,06,23,03,38,10.10
2006,06,23,03,39,10.10
2006,06,23,03,40,10.10
2006,06,23,03,41,10.10
2006,06,23,03,42,10.10
2006,06,23,03,43,10.10
2006,06,23,03,44,10.10
2006,06,23,03,45,10.10
2006,06,23,03,46,10.10
2006,06,23,03,47,10.10
2006,06,23,03,48,10.10
2006,06,23,03,49,10.00
2006,06,23,03,50,10.00
2006,06,23,03,51,10.00
2006,06,23,03,52,10.00
2006,06,23,03,53,10.00
2006,06,23,03,54,10.00
2006,06,23,03,55,10.00
2006,06,23,03,56,10.00
2006,06,23,03,57,10.00
2006,06,23,03,58,10.00
2006,06,23,03,59,9.90
2006,06,23,04,00,9.90
2006,06,23,04,01,9.90
2006,06,23,04,02,9.90
2006,06,23,04,03,9.90
2006,06,23,04,04,9.90
2006,06,23,04,05,9.90
2006,06,23,04,06,9.90
2006,06,23,04,07,9.90
2006,06,23,04,08,9.90
2006,06,23,04,09,9.90
2006,06,23,04,10,9.90
2006,06,23,04,11,9.90
2006,06,23,04,12,9.90
2006,06,23,04,13,9.90
2006,06,23,04,14,9.90
2006,06,23,04,15,9.90
2006,06,23,04,16,9.90
2006,06,23,04,17,9.90
2006,06,23,04,18,9.90
2006,06,23,04,19,9.90
2006,06,23,04,20,9.90
2006,06,23,04,21,9.90
2006,06,23,04,22,9.90
2006,06,23,04,23,9.80
2006,06,23,04,24,9.80
2006,06,23,04,25,9.80
2006,06,23,04,26,9.80
2006,06,23,04,27,9.80
2006,06,23,04,28,9.80
2006,06,23,04,29,9.80
2006,06,23,04,30,9.90
2006,06,23,04,31,9.90
2006,06,23,04,32,9.90
2006,06,23,04,33,9.90
2006,06,23,04,34,9.90
2006,06,23,04,35,9.90
2006,06,23,04,36,9.90
2006,06,23,04,37,9.90
2006,06,23,04,38,9.90
2006,06,23,04,39,9.90
2006,06,23,04,40,9.90
2006,06,23,04,41,9.90
2006,06,23,04,42,9.90
2006,06,23,04,43,9.90
2006,06,23,04,44,9.90
2006,06,23,04,45,9.90
2006,06,23,04,46,9.90
2006,06,23,04,47,9.90
2006,06,23,04,48,9.90
2006,06,23,04,49,9.90
2006,06,23,04,50,9.90
2006,06,23,04,51,9.90
2006,06,23,04,52,9.90
2006,06,23,04,53,9.90
2006,06,23,04,54,9.90
2006,06,23,04,55,9.90
2006,06,23,04,56,9.90
2006,06,23,04,57,9.90
2006,06,23,04,58,9.90
2006,06,23,04,59,9.90
2006,06,23,05,00,9.90
2006,06,23,05,01,9.90
2006,06,23,05,02,9.90
2006,06,23,05,03,9.90
2006,06,23,05,04,9.90
2006,06,23,05,05,9.90
2006,06,23,05,06,9.90
2006,06,23,05,07,9.90
2006,06,23,05,08,9.90
2006,06,23,05,09,9.90
2006,06,23,05,10,9.90
2006,06,23,05,11,9.90
2006,06,23,05,12,9.90
2006,06,23,05,13,9.80
2006,06,23,05,14,9.80
2006,06,23,05,15,9.90
2006,06,23,05,16,9.90
2006,06,23,05,17,9.90
2006,06,23,05,18,9.80
2006,06,23,05,19,9.80
2006,06,23,05,20,9.80
2006,06,23,05,21,9.80
2006,06,23,05,22,9.80
2006,06,23,05,23,9.80
2006,06,23,05,24,9.80
2006,06,23,05,25,9.80
2006,06,23,05,26,9.80
2006,06,23,05,27,9.80
2006,06,23,05,28,9.80
2006,06,23,05,29,9.80
2006,06,23,05,30,9.80
2006,06,23,05,31,9.80
2006,06,23,05,32,9.80
2006,06,23,05,33,9.80
2006,06,23,05,34,9.80
2006,06,23,05,35,9.80
2006,06,23,05,36,9.80
2006,06,23,05,37,9.80
2006,06,23,05,38,9.80
2006,06,23,05,39,9.80
2006,06,23,05,40,9.80
2006,06,23,05,41,9.80
2006,06,23,05,42,9.80
2006,06,23,05,43,9.80
2006,06,23,05,44,9.70
2006,06,23,05,45,9.70
2006,06,23,05,46,9.70
2006,06,23,05,47,9.70
2006,06,23,05,48,9.80
2006,06,23,05,49,9.80
2006,06,23,05,50,9.80
2006,06,23,05,51,9.80
2006,06,23,05,52,9.80
2006,06,23,05,53,9.90
2006,06,23,05,54,9.90
2006,06,23,05,55,9.90
2006,06,23,05,56,10.00
2006,06,23,05,57,10.00
2006,06,23,05,58,10.10
2006,06,23,05,59,10.10
2006,06,23,06,00,10.10
2006,06,23,06,01,10.10
2006,06,23,06,02,10.20
2006,06,23,06,03,10.20
2006,06,23,06,04,10.20
2006,06,23,06,05,10.20
2006,06,23,06,06,10.20
2006,06,23,06,07,10.20
2006,06,23,06,08,10.20
2006,06,23,06,09,10.30
2006,06,23,06,10,10.30
2006,06,23,06,11,10.30
2006,06,23,06,12,10.30
2006,06,23,06,13,10.30
2006,06,23,06,14,10.30
2006,06,23,06,15,10.40
2006,06,23,06,16,10.40
2006,06,23,06,17,10.40
2006,06,23,06,18,10.40
2006,06,23,06,19,10.50
2006,06,23,06,20,10.50
2006,06,23,06,21,10.60
2006,06,23,06,22,10.60
2006,06,23,06,23,10.60
2006,06,23,06,24,10.60
2006,06,23,06,25,10.60
2006,06,23,06,26,10.70
2006,06,23,06,27,10.70
2006,06,23,06,28,10.70
2006,06,23,06,29,10.80
2006,06,23,06,30,10.80
2006,06,23,06,31,10.80
2006,06,23,06,32,10.80
2006,06,23,06,33,10.80
2006,06,23,06,34,10.90
2006,06,23,06,35,10.90
2006,06,23,06,36,10.90
2006,06,23,06,37,10.90
2006,06,23,06,38,11.00
2006,06,23,06,39,11.00
2006,06,23,06,40,11.10
2006,06,23,06,41,11.10
2006,06,23,06,42,11.10
2006,06,23,06,43,11.10
2006,06,23,06,44,11.10
2006,06,23,06,45,11.20
2006,06,23,06,46,11.20
2006,06,23,06,47,11.20
2006,06,23,06,48,11.20
2006,06,23,06,49,11.30
2006,06,23,06,50,11.30
2006,06,23,06,51,11.40
2006,06,23,06,52,11.40
2006,06,23,06,53,11.40
2006,06,23,06,54,11.50
2006,06,23,06,55,11.60
2006,06,23,06,56,11.60
2006,06,23,06,57,11.60
2006,06,23,06,58,11.60
2006,06,23,06,59,11.70
2006,06,23,07,00,11.80
2006,06,23,07,01,11.80
2006,06,23,07,02,11.80
2006,06,23,07,03,11.90
2006,06,23,07,04,12.00
2006,06,23,07,05,12.00
2006,06,23,07,06,12.00
2006,06,23,07,07,12.10
2006,06,23,07,08,12.10
2006,06,23,07,09,12.10
2006,06,23,07,10,12.20
2006,06,23,07,11,12.20
2006,06,23,07,12,12.30
2006,06,23,07,13,12.30
2006,06,23,07,14,12.30
2006,06,23,07,15,12.40
2006,06,23,07,16,12.40
2006,06,23,07,17,12.40
2006,06,23,07,18,12.50
2006,06,23,07,19,12.50
2006,06,23,07,20,12.50
2006,06,23,07,21,12.60
2006,06,23,07,22,12.70
2006,06,23,07,23,12.70
2006,06,23,07,24,12.80
2006,06,23,07,25,12.80
2006,06,23,07,26,12.90
2006,06,23,07,27,12.90
2006,06,23,07,28,13.00
2006,06,23,07,29,13.10
2006,06,23,07,30,13.10
2006,06,23,07,31,13.10
2006,06,23,07,32,13.20
2006,06,23,07,33,13.20
2006,06,23,07,34,13.30
2006,06,23,07,35,13.30
2006,06,23,07,36,13.40
2006,06,23,07,37,13.40
2006,06,23,07,38,13.50
2006,06,23,07,39,13.50
2006,06,23,07,40,13.60
2006,06,23,07,41,13.60
2006,06,23,07,42,13.70
2006,06,23,07,43,13.80
2006,06,23,07,44,13.90
2006,06,23,07,45,14.00
2006,06,23,07,46,14.00
2006,06,23,07,47,14.10
2006,06,23,07,48,14.20
2006,06,23,07,49,14.30
2006,06,23,07,50,14.40
2006,06,23,07,51,14.60
2006,06,23,07,52,14.70
2006,06,23,07,53,14.90
2006,06,23,07,54,15.00
2006,06,23,07,55,15.00
2006,06,23,07,56,15.20
2006,06,23,07,57,15.30
2006,06,23,07,58,15.40
2006,06,23,07,59,15.40
2006,06,23,08,00,15.40
2006,06,23,08,01,15.40
2006,06,23,08,02,15.50
2006,06,23,08,03,15.60
2006,06,23,08,04,15.70
2006,06,23,08,05,15.70
2006,06,23,08,06,15.80
2006,06,23,08,07,15.80
2006,06,23,08,08,16.00
2006,06,23,08,09,16.10
2006,06,23,08,10,16.30
2006,06,23,08,11,16.40
2006,06,23,08,12,16.50
2006,06,23,08,13,16.60
2006,06,23,08,14,16.70
2006,06,23,08,15,16.70
2006,06,23,08,16,16.70
2006,06,23,08,17,16.80
2006,06,23,08,18,16.80
2006,06,23,08,19,16.90
2006,06,23,08,20,17.00
2006,06,23,08,21,17.00
2006,06,23,08,22,17.00
2006,06,23,08,23,17.00
2006,06,23,08,24,17.00
2006,06,23,08,25,17.00
2006,06,23,08,26,17.00
2006,06,23,08,27,16.90
2006,06,23,08,28,17.00
2006,06,23,08,29,17.00
2006,06,23,08,30,17.00
2006,06,23,08,31,17.10
2006,06,23,08,32,17.10
2006,06,23,08,33,17.20
2006,06,23,08,34,17.10
2006,06,23,08,35,17.10
2006,06,23,08,36,17.10
2006,06,23,08,37,17.10
2006,06,23,08,38,17.20
2006,06,23,08,39,17.10
2006,06,23,08,40,17.10
2006,06,23,08,41,17.00
2006,06,23,08,42,17.00
2006,06,23,08,43,16.90
2006,06,23,08,44,16.80
2006,06,23,08,45,16.70
2006,06,23,08,46,16.70
2006,06,23,08,47,16.60
2006,06,23,08,48,16.50
2006,06,23,08,49,16.50
2006,06,23,08,50,16.30
2006,06,23,08,51,16.20
2006,06,23,08,52,16.10
2006,06,23,08,53,16.10
2006,06,23,08,54,16.10
2006,06,23,08,55,16.20
2006,06,23,08,56,16.20
2006,06,23,08,57,16.20
2006,06,23,08,58,16.20
2006,06,23,08,59,16.20
2006,06,23,09,00,16.20
2006,06,23,09,01,16.20
2006,06,23,09,02,16.20
2006,06,23,09,03,16.20
2006,06,23,09,04,16.20
2006,06,23,09,05,16.20
2006,06,23,09,06,16.20
2006,06,23,09,07,16.20
2006,06,23,09,08,16.20
2006,06,23,09,09,16.30
2006,06,23,09,10,16.40
2006,06,23,09,11,16.40
2006,06,23,09,12,16.40
2006,06,23,09,13,16.30
2006,06,23,09,14,16.30
2006,06,23,09,15,16.30
2006,06,23,09,16,16.30
2006,06,23,09,17,16.40
2006,06,23,09,18,16.40
2006,06,23,09,19,16.40
2006,06,23,09,20,16.40
2006,06,23,09,21,16.40
2006,06,23,09,22,16.40
2006,06,23,09,23,16.40
2006,06,23,09,24,16.50
2006,06,23,09,25,16.60
2006,06,23,09,26,16.60
2006,06,23,09,27,16.60
2006,06,23,09,28,16.70
2006,06,23,09,29,16.70
2006,06,23,09,30,16.80
2006,06,23,09,31,16.80
2006,06,23,09,32,16.80
2006,06,23,09,33,16.80
2006,06,23,09,34,16.90
2006,06,23,09,35,17.00
2006,06,23,09,36,17.10
2006,06,23,09,37,17.20
2006,06,23,09,38,17.20
2006,06,23,09,39,17.30
2006,06,23,09,40,17.30
2006,06,23,09,41,17.40
2006,06,23,09,42,17.40
2006,06,23,09,43,17.40
2006,06,23,09,44,17.40
2006,06,23,09,45,17.50
2006,06,23,09,46,17.60
2006,06,23,09,47,17.50
2006,06,23,09,48,17.40
2006,06,23,09,49,17.20
2006,06,23,09,50,17.00
2006,06,23,09,51,16.80
2006,06,23,09,52,16.60
2006,06,23,09,53,16.50
2006,06,23,09,54,16.40
2006,06,23,09,55,16.40
2006,06,23,09,56,16.40
2006,06,23,09,57,16.40
2006,06,23,09,58,16.40
2006,06,23,09,59,16.40
2006,06,23,10,00,16.50
2006,06,23,10,01,16.60
2006,06,23,10,02,16.60
2006,06,23,10,03,16.70
2006,06,23,10,04,16.70
2006,06,23,10,05,16.80
2006,06,23,10,06,16.80
2006,06,23,10,07,16.80
2006,06,23,10,08,16.80
2006,06,23,10,09,16.80
2006,06,23,10,10,16.80
2006,06,23,10,11,16.80
2006,06,23,10,12,16.90
2006,06,23,10,13,16.90
2006,06,23,10,14,17.00
2006,06,23,10,15,17.10
2006,06,23,10,16,17.30
2006,06,23,10,17,17.40
2006,06,23,10,18,17.50
2006,06,23,10,19,17.60
2006,06,23,10,20,17.70
2006,06,23,10,21,17.60
2006,06,23,10,22,17.40
2006,06,23,10,23,17.40
2006,06,23,10,24,17.30
2006,06,23,10,25,17.30
2006,06,23,10,26,17.30
2006,06,23,10,27,17.30
2006,06,23,10,28,17.40
2006,06,23,10,29,17.50
2006,06,23,10,30,17.60
2006,06,23,10,31,17.70
2006,06,23,10,32,17.80
2006,06,23,10,33,17.90
2006,06,23,10,34,17.80
2006,06,23,10,35,17.80
2006,06,23,10,36,17.80
2006,06,23,10,37,17.80
2006,06,23,10,38,17.90
2006,06,23,10,39,17.80
2006,06,23,10,40,17.80
2006,06,23,10,41,17.80
2006,06,23,10,42,17.70
2006,06,23,10,43,17.70
2006,06,23,10,44,17.70
2006,06,23,10,45,17.80
2006,06,23,10,46,17.90
2006,06,23,10,47,18.00
2006,06,23,10,48,18.10
2006,06,23,10,49,18.20
2006,06,23,10,50,18.30
2006,06,23,10,51,18.50
2006,06,23,10,52,18.60
2006,06,23,10,53,18.60
2006,06,23,10,54,18.50
2006,06,23,10,55,18.60
2006,06,23,10,56,18.50
2006,06,23,10,57,18.40
2006,06,23,10,58,18.20
2006,06,23,10,59,18.00
2006,06,23,11,00,17.90
2006,06,23,11,01,17.80
2006,06,23,11,02,17.80
2006,06,23,11,03,17.80
2006,06,23,11,04,17.80
2006,06,23,11,05,17.70
2006,06,23,11,06,17.60
2006,06,23,11,07,17.50
2006,06,23,11,08,17.50
2006,06,23,11,09,17.60
2006,06,23,11,10,17.60
2006,06,23,11,11,17.70
2006,06,23,11,12,17.80
2006,06,23,11,13,17.80
2006,06,23,11,14,17.90
2006,06,23,11,15,17.90
2006,06,23,11,16,18.00
2006,06,23,11,17,18.00
2006,06,23,11,18,17.90
2006,06,23,11,19,17.90
2006,06,23,11,20,17.70
2006,06,23,11,21,17.50
2006,06,23,11,22,17.30
2006,06,23,11,23,17.30
2006,06,23,11,24,17.30
2006,06,23,11,25,17.30
2006,06,23,11,26,17.40
2006,06,23,11,27,17.40
2006,06,23,11,28,17.40
2006,06,23,11,29,17.40
2006,06,23,11,30,17.40
2006,06,23,11,31,17.50
2006,06,23,11,32,17.50
2006,06,23,11,33,17.60
2006,06,23,11,34,17.50
2006,06,23,11,35,17.40
2006,06,23,11,36,17.30
2006,06,23,11,37,17.20
2006,06,23,11,38,17.20
2006,06,23,11,39,17.30
2006,06,23,11,40,17.30
2006,06,23,11,41,17.30
2006,06,23,11,42,17.30
2006,06,23,11,43,17.20
2006,06,23,11,44,17.30
2006,06,23,11,45,17.40
2006,06,23,11,46,17.50
2006,06,23,11,47,17.50
2006,06,23,11,48,17.70
2006,06,23,11,49,17.80
2006,06,23,11,50,17.90
2006,06,23,11,51,17.90
2006,06,23,11,52,17.90
2006,06,23,11,53,17.90
2006,06,23,11,54,17.90
2006,06,23,11,55,17.90
2006,06,23,11,56,17.90
2006,06,23,11,57,17.90
2006,06,23,11,58,17.90
2006,06,23,11,59,18.00
2006,06,23,12,00,18.10
2006,06,23,12,01,18.30
2006,06,23,12,02,18.40
2006,06,23,12,03,18.40
2006,06,23,12,04,18.40
2006,06,23,12,05,18.30
2006,06,23,12,06,18.20
2006,06,23,12,07,18.10
2006,06,23,12,08,18.10
2006,06,23,12,09,18.00
2006,06,23,12,10,18.00
2006,06,23,12,11,18.00
2006,06,23,12,12,17.90
2006,06,23,12,13,17.90
2006,06,23,12,14,18.00
2006,06,23,12,15,18.00
2006,06,23,12,16,17.90
2006,06,23,12,17,18.00
2006,06,23,12,18,18.10
2006,06,23,12,19,18.20
2006,06,23,12,20,18.20
2006,06,23,12,21,18.10
2006,06,23,12,22,18.00
2006,06,23,12,23,18.00
2006,06,23,12,24,18.00
2006,06,23,12,25,18.00
2006,06,23,12,26,18.10
2006,06,23,12,27,18.00
2006,06,23,12,28,18.10
2006,06,23,12,29,18.20
2006,06,23,12,30,18.30
2006,06,23,12,31,18.40
2006,06,23,12,32,18.40
2006,06,23,12,33,18.40
2006,06,23,12,34,18.50
2006,06,23,12,35,18.50
2006,06,23,12,36,18.60
2006,06,23,12,37,18.70
2006,06,23,12,38,18.80
2006,06,23,12,39,18.90
2006,06,23,12,40,19.00
2006,06,23,12,41,19.20
2006,06,23,12,42,19.20
2006,06,23,12,43,19.30
2006,06,23,12,44,19.30
2006,06,23,12,45,19.30
2006,06,23,12,46,19.20
2006,06,23,12,47,19.10
2006,06,23,12,48,19.00
2006,06,23,12,49,19.00
2006,06,23,12,50,18.90
2006,06,23,12,51,18.90
2006,06,23,12,52,18.80
2006,06,23,12,53,18.80
2006,06,23,12,54,18.80
2006,06,23,12,55,18.70
2006,06,23,12,56,18.70
2006,06,23,12,57,18.80
2006,06,23,12,58,18.80
2006,06,23,12,59,18.80
2006,06,23,13,00,18.70
2006,06,23,13,01,18.60
2006,06,23,13,02,18.60
2006,06,23,13,03,18.50
2006,06,23,13,04,18.50
2006,06,23,13,05,18.50
2006,06,23,13,06,18.50
2006,06,23,13,07,18.40
2006,06,23,13,08,18.30
2006,06,23,13,09,18.30
2006,06,23,13,10,18.30
2006,06,23,13,11,18.40
2006,06,23,13,12,18.60
2006,06,23,13,13,18.80
2006,06,23,13,14,18.80
2006,06,23,13,15,18.80
2006,06,23,13,16,19.00
2006,06,23,13,17,19.10
2006,06,23,13,18,19.10
2006,06,23,13,19,19.00
2006,06,23,13,20,18.80
2006,06,23,13,21,18.60
2006,06,23,13,22,18.60
2006,06,23,13,23,18.70
2006,06,23,13,24,18.80
2006,06,23,13,25,18.80
2006,06,23,13,26,18.80
2006,06,23,13,27,18.70
2006,06,23,13,28,18.80
2006,06,23,13,29,19.00
2006,06,23,13,30,19.10
2006,06,23,13,31,19.10
2006,06,23,13,32,19.10
2006,06,23,13,33,19.10
2006,06,23,13,34,19.00
2006,06,23,13,35,18.90
2006,06,23,13,36,19.00
2006,06,23,13,37,19.10
2006,06,23,13,38,19.10
2006,06,23,13,39,19.20
2006,06,23,13,40,19.20
2006,06,23,13,41,19.20
2006,06,23,13,42,19.30
2006,06,23,13,43,19.30
2006,06,23,13,44,19.30
2006,06,23,13,45,19.40
2006,06,23,13,46,19.30
2006,06,23,13,47,19.30
2006,06,23,13,48,19.30
2006,06,23,13,49,19.40
2006,06,23,13,50,19.40
2006,06,23,13,51,19.50
2006,06,23,13,52,19.50
2006,06,23,13,53,19.60
2006,06,23,13,54,19.60
2006,06,23,13,55,19.60
2006,06,23,13,56,19.70
2006,06,23,13,57,19.80
2006,06,23,13,58,19.80
2006,06,23,13,59,19.80
2006,06,23,14,00,19.80
2006,06,23,14,01,19.90
2006,06,23,14,02,20.00
2006,06,23,14,03,20.00
2006,06,23,14,04,20.00
2006,06,23,14,05,20.00
2006,06,23,14,06,20.00
2006,06,23,14,07,20.00
2006,06,23,14,08,20.10
2006,06,23,14,09,20.10
2006,06,23,14,10,20.20
2006,06,23,14,11,20.30
2006,06,23,14,12,20.30
2006,06,23,14,13,20.30
2006,06,23,14,14,20.30
2006,06,23,14,15,20.40
2006,06,23,14,16,20.50
2006,06,23,14,17,20.60
2006,06,23,14,18,20.50
2006,06,23,14,19,20.30
2006,06,23,14,20,20.20
2006,06,23,14,21,20.30
2006,06,23,14,22,20.30
2006,06,23,14,23,20.40
2006,06,23,14,24,20.40
2006,06,23,14,25,20.50
2006,06,23,14,26,20.60
2006,06,23,14,27,20.60
2006,06,23,14,28,20.60
2006,06,23,14,29,20.70
2006,06,23,14,30,20.80
2006,06,23,14,31,20.80
2006,06,23,14,32,20.80
2006,06,23,14,33,20.80
2006,06,23,14,34,20.80
2006,06,23,14,35,20.70
2006,06,23,14,36,20.70
2006,06,23,14,37,20.70
2006,06,23,14,38,20.60
2006,06,23,14,39,20.60
2006,06,23,14,40,20.70
2006,06,23,14,41,20.70
2006,06,23,14,42,20.80
2006,06,23,14,43,20.80
2006,06,23,14,44,20.70
2006,06,23,14,45,20.70
2006,06,23,14,46,20.70
2006,06,23,14,47,20.70
2006,06,23,14,48,20.60
2006,06,23,14,49,20.50
2006,06,23,14,50,20.50
2006,06,23,14,51,20.50
2006,06,23,14,52,20.40
2006,06,23,14,53,20.40
2006,06,23,14,54,20.40
2006,06,23,14,55,20.40
2006,06,23,14,56,20.40
2006,06,23,14,57,20.40
2006,06,23,14,58,20.60
2006,06,23,14,59,20.50
2006,06,23,15,00,20.40
2006,06,23,15,01,20.40
2006,06,23,15,02,20.40
2006,06,23,15,03,20.50
2006,06,23,15,04,20.60
2006,06,23,15,05,20.70
2006,06,23,15,06,20.90
2006,06,23,15,07,21.10
2006,06,23,15,08,21.20
2006,06,23,15,09,21.20
2006,06,23,15,10,21.10
2006,06,23,15,11,21.00
2006,06,23,15,12,20.90
2006,06,23,15,13,20.80
2006,06,23,15,14,20.80
2006,06,23,15,15,20.70
2006,06,23,15,16,20.60
2006,06,23,15,17,20.50
2006,06,23,15,18,20.50
2006,06,23,15,19,20.40
2006,06,23,15,20,20.40
2006,06,23,15,21,20.40
2006,06,23,15,22,20.50
2006,06,23,15,23,20.50
2006,06,23,15,24,20.50
2006,06,23,15,25,20.50
2006,06,23,15,26,20.50
2006,06,23,15,27,20.60
2006,06,23,15,28,20.60
2006,06,23,15,29,20.60
2006,06,23,15,30,20.70
2006,06,23,15,31,20.70
2006,06,23,15,32,20.70
2006,06,23,15,33,20.80
2006,06,23,15,34,20.90
2006,06,23,15,35,21.10
2006,06,23,15,36,21.20
2006,06,23,15,37,21.30
2006,06,23,15,38,21.40
2006,06,23,15,39,21.50
2006,06,23,15,40,21.60
2006,06,23,15,41,21.70
2006,06,23,15,42,21.70
2006,06,23,15,43,21.70
2006,06,23,15,44,21.70
2006,06,23,15,45,21.80
2006,06,23,15,46,21.80
2006,06,23,15,47,21.90
2006,06,23,15,48,22.00
2006,06,23,15,49,22.00
2006,06,23,15,50,21.90
2006,06,23,15,51,21.80
2006,06,23,15,52,21.90
2006,06,23,15,53,22.10
2006,06,23,15,54,22.10
2006,06,23,15,55,22.00
2006,06,23,15,56,22.00
2006,06,23,15,57,22.00
2006,06,23,15,58,22.10
2006,06,23,15,59,22.20
2006,06,23,16,00,22.30
2006,06,23,16,01,22.40
2006,06,23,16,02,22.60
2006,06,23,16,03,22.60
2006,06,23,16,04,22.60
2006,06,23,16,05,22.60
2006,06,23,16,06,22.70
2006,06,23,16,07,22.80
2006,06,23,16,08,22.80
2006,06,23,16,09,22.80
2006,06,23,16,10,22.70
2006,06,23,16,11,22.60
2006,06,23,16,12,22.60
2006,06,23,16,13,22.60
2006,06,23,16,14,22.60
2006,06,23,16,15,22.70
2006,06,23,16,16,22.60
2006,06,23,16,17,22.40
2006,06,23,16,18,22.20
2006,06,23,16,19,22.10
2006,06,23,16,20,22.10
2006,06,23,16,21,22.00
2006,06,23,16,22,22.00
2006,06,23,16,23,22.10
2006,06,23,16,24,22.20
2006,06,23,16,25,22.40
2006,06,23,16,26,22.50
2006,06,23,16,27,22.60
2006,06,23,16,28,22.60
2006,06,23,16,29,22.70
2006,06,23,16,30,22.70
2006,06,23,16,31,22.70
2006,06,23,16,32,22.70
2006,06,23,16,33,22.60
2006,06,23,16,34,22.50
2006,06,23,16,35,22.40
2006,06,23,16,36,22.40
2006,06,23,16,37,22.30
2006,06,23,16,38,22.40
2006,06,23,16,39,22.40
2006,06,23,16,40,22.40
2006,06,23,16,41,22.30
2006,06,23,16,42,22.20
2006,06,23,16,43,22.00
2006,06,23,16,44,21.90
2006,06,23,16,45,21.90
2006,06,23,16,46,21.90
2006,06,23,16,47,21.90
2006,06,23,16,48,22.10
2006,06,23,16,49,22.20
2006,06,23,16,50,22.30
2006,06,23,16,51,22.50
2006,06,23,16,52,22.60
2006,06,23,16,53,22.80
2006,06,23,16,54,22.80
2006,06,23,16,55,22.80
2006,06,23,16,56,22.80
2006,06,23,16,57,22.60
2006,06,23,16,58,22.40
2006,06,23,16,59,22.20
2006,06,23,17,00,22.10
2006,06,23,17,01,21.90
2006,06,23,17,02,21.80
2006,06,23,17,03,21.80
2006,06,23,17,04,21.80
2006,06,23,17,05,21.90
2006,06,23,17,06,22.00
2006,06,23,17,07,22.00
2006,06,23,17,08,22.10
2006,06,23,17,09,22.10
2006,06,23,17,10,22.10
2006,06,23,17,11,22.10
2006,06,23,17,12,22.10
2006,06,23,17,13,22.00
2006,06,23,17,14,22.10
2006,06,23,17,15,22.10
2006,06,23,17,16,22.20
2006,06,23,17,17,22.20
2006,06,23,17,18,22.30
2006,06,23,17,19,22.30
2006,06,23,17,20,22.40
2006,06,23,17,21,22.40
2006,06,23,17,22,22.40
2006,06,23,17,23,22.30
2006,06,23,17,24,22.20